sat.trackr.live / text

‹ back to catalog

STARLINK-31071

NORAD 58602 · 2023-200P

PAYLOAD ACTIVE UNKNOWN

§ Identity

Operator
Country
US
Launch date
2023-12-19
Launch site
AFETR
Launch vehicle
Mass (kg)
RCS (m²)

Purposes: comms

External: N2YO · Heavens-Above · Gunter

§ Orbital elements

Epoch: 2026-09-20T07:13:31.988352Z

Period
94.27 min
Inclination
43.0035°
Eccentricity
0.0001296
Mean motion
15.27572784 rev/d
Perigee alt
482.2 km
Apogee alt
484.0 km
Semi-major
6,861.2 km
B*
-2.0926e-5
RAAN
349.6144°
Arg perigee
267.4426°
Mean anomaly
92.6278°
Rev number
15,525

§ Raw data

STARLINK-310711 58602U 23200P   26263.30106468 -.00000838  00000+0 -20926-4 0  99982 58602  43.0035 349.6144 0001296 267.4426  92.6278 15.27572784155258

JSON: /api/v1/satellites/58602 · /tle

For live sub-satellite position, see the globe view (requires WebGL).

§ Visibility from observer

Set your observer location to see the next 7 days of passes ≥ 10°. The values pass through the URL so the page stays shareable.

No JS? Fill the form by hand. The geolocation button needs JavaScript.